owner,sensor,date,latitude,longitude,air_temperature,qcFlag 
NDBC,ioos:station:NOAA.NDBC:FWYF1:1,2015-09-03T19:00:00Z,25.5910,-80.0970,29.1,1111122 
NDBC,ioos:station:NOAA.NDBC:FWYF1:1,2015-09-03T20:00:00Z,25.5910,-80.0970,29.2,1111122 
NDBC,ioos:station:NOAA.NDBC:FWYF1:1,2015-09-03T21:00:00Z,25.5910,-80.0970,29.3,1111122 
NDBC,ioos:station:NOAA.NDBC:FWYF1:1,2015-09-04T00:00:00Z,25.5910,-80.0970,29.5,1111122 
NDBC,ioos:station:NOAA.NDBC:FWYF1:1,2015-09-04T03:00:00Z,25.5910,-80.0970,28.6,1111122 
NDBC,ioos:station:NOAA.NDBC:FWYF1:1,2015-09-04T04:00:00Z,25.5910,-80.0970,28.8,1111122 
NDBC,ioos:station:NOAA.NDBC:FWYF1:1,2015-09-04T05:00:00Z,25.5910,-80.0970,28.9,1111122 
NDBC,ioos:station:NOAA.NDBC:FWYF1:1,2015-09-04T09:00:00Z,25.5910,-80.0970,28.8,1111122 
NDBC,ioos:station:NOAA.NDBC:FWYF1:1,2015-09-04T10:00:00Z,25.5910,-80.0970,28.8,1111122 
NDBC,ioos:station:NOAA.NDBC:FWYF1:1,2015-09-04T11:00:00Z,25.5910,-80.0970,28.8,1111122 
NDBC,ioos:station:NOAA.NDBC:FWYF1:1,2015-09-04T12:00:00Z,25.5910,-80.0970,28.2,1111122 
NDBC,ioos:station:NOAA.NDBC:FWYF1:1,2015-09-04T13:00:00Z,25.5910,-80.0970,28.6,1111122 
NDBC,ioos:station:NOAA.NDBC:FWYF1:1,2015-09-04T14:00:00Z,25.5910,-80.0970,29.0,1111122 
NDBC,ioos:station:NOAA.NDBC:FWYF1:1,2015-09-04T15:00:00Z,25.5910,-80.0970,29.1,1111122 
NDBC,ioos:station:NOAA.NDBC:FWYF1:1,2015-09-04T16:00:00Z,25.5910,-80.0970,30.6,1111122 
NDBC,ioos:station:NOAA.NDBC:FWYF1:1,2015-09-04T17:00:00Z,25.5910,-80.0970,29.5,1111122 
NDBC,ioos:station:NOAA.NDBC:FWYF1:1,2015-09-04T18:00:00Z,25.5910,-80.0970,29.5,1111122 
NDBC,ioos:station:NOAA.NDBC:FWYF1:1,2015-09-04T19:00:00Z,25.5910,-80.0970,29.7,1111122 
NDBC,ioos:station:NOAA.NDBC:FWYF1:1,2015-09-04T20:00:00Z,25.5910,-80.0970,29.8,1111122 
NDBC,ioos:station:NOAA.NDBC:FWYF1:1,2015-09-04T21:00:00Z,25.5910,-80.0970,30.0,1111122 
NDBC,ioos:station:NOAA.NDBC:FWYF1:1,2015-09-04T22:00:00Z,25.5910,-80.0970,28.0,1111122 
NDBC,ioos:station:NOAA.NDBC:FWYF1:1,2015-09-04T23:00:00Z,25.5910,-80.0970,27.4,1111122 
NDBC,ioos:station:NOAA.NDBC:FWYF1:1,2015-09-05T00:00:00Z,25.5910,-80.0970,28.4,1111122 
NDBC,ioos:station:NOAA.NDBC:FWYF1:1,2015-09-05T02:00:00Z,25.5910,-80.0970,27.1,1111122 
NDBC,ioos:station:NOAA.NDBC:FWYF1:1,2015-09-05T07:00:00Z,25.5910,-80.0970,27.9,1111122 
NDBC,ioos:station:NOAA.NDBC:FWYF1:1,2015-09-05T10:00:00Z,25.5910,-80.0970,27.9,1111122 
NDBC,ioos:station:NOAA.NDBC:FWYF1:1,2015-09-05T11:00:00Z,25.5910,-80.0970,28.3,1111122 
NDBC,ioos:station:NOAA.NDBC:FWYF1:1,2015-09-05T12:00:00Z,25.5910,-80.0970,28.6,1111122 
NDBC,ioos:station:NOAA.NDBC:FWYF1:1,2015-09-05T13:00:00Z,25.5910,-80.0970,29.3,1111122 
NDBC,ioos:station:NOAA.NDBC:FWYF1:1,2015-09-05T14:00:00Z,25.5910,-80.0970,29.2,1111122 
NDBC,ioos:station:NOAA.NDBC:FWYF1:1,2015-09-05T15:00:00Z,25.5910,-80.0970,29.5,1111122 
NDBC,ioos:station:NOAA.NDBC:FWYF1:1,2015-09-05T16:00:00Z,25.5910,-80.0970,29.6,1111122 
NDBC,ioos:station:NOAA.NDBC:FWYF1:1,2015-09-05T17:00:00Z,25.5910,-80.0970,29.8,1111122 
NDBC,ioos:station:NOAA.NDBC:FWYF1:1,2015-09-05T18:00:00Z,25.5910,-80.0970,29.5,1111122 
NDBC,ioos:station:NOAA.NDBC:FWYF1:1,2015-09-05T19:00:00Z,25.5910,-80.0970,29.3,1111122 
NDBC,ioos:station:NOAA.NDBC:FWYF1:1,2015-09-05T20:00:00Z,25.5910,-80.0970,27.3,1111122 
NDBC,ioos:station:NOAA.NDBC:FWYF1:1,2015-09-05T21:00:00Z,25.5910,-80.0970,27.6,1111122 
NDBC,ioos:station:NOAA.NDBC:FWYF1:1,2015-09-05T22:00:00Z,25.5910,-80.0970,28.2,1111122 
NDBC,ioos:station:NOAA.NDBC:FWYF1:1,2015-09-06T00:00:00Z,25.5910,-80.0970,28.7,1111122 
NDBC,ioos:station:NOAA.NDBC:FWYF1:1,2015-09-06T01:00:00Z,25.5910,-80.0970,25.0,1111122 
NDBC,ioos:station:NOAA.NDBC:FWYF1:1,2015-09-06T02:00:00Z,25.5910,-80.0970,26.7,1111122 
NDBC,ioos:station:NOAA.NDBC:FWYF1:1,2015-09-06T03:00:00Z,25.5910,-80.0970,27.8,1111122 
NDBC,ioos:station:NOAA.NDBC:FWYF1:1,2015-09-06T04:00:00Z,25.5910,-80.0970,28.2,1111122 
NDBC,ioos:station:NOAA.NDBC:FWYF1:1,2015-09-06T06:00:00Z,25.5910,-80.0970,27.4,1111122 
NDBC,ioos:station:NOAA.NDBC:FWYF1:1,2015-09-06T09:00:00Z,25.5910,-80.0970,27.4,1111122 
NDBC,ioos:station:NOAA.NDBC:FWYF1:1,2015-09-06T10:00:00Z,25.5910,-80.0970,27.5,1111122 
NDBC,ioos:station:NOAA.NDBC:FWYF1:1,2015-09-06T11:00:00Z,25.5910,-80.0970,27.6,1111122 
NDBC,ioos:station:NOAA.NDBC:FWYF1:1,2015-09-06T12:00:00Z,25.5910,-80.0970,27.6,1111122 
NDBC,ioos:station:NOAA.NDBC:FWYF1:1,2015-09-06T13:00:00Z,25.5910,-80.0970,27.8,1111122 
NDBC,ioos:station:NOAA.NDBC:FWYF1:1,2015-09-06T14:00:00Z,25.5910,-80.0970,27.9,1111122 
NDBC,ioos:station:NOAA.NDBC:FWYF1:1,2015-09-06T15:00:00Z,25.5910,-80.0970,28.7,1111122 
NDBC,ioos:station:NOAA.NDBC:FWYF1:1,2015-09-06T16:00:00Z,25.5910,-80.0970,29.2,1111122 
NDBC,ioos:station:NOAA.NDBC:FWYF1:1,2015-09-06T17:00:00Z,25.5910,-80.0970,29.3,1111122 
NDBC,ioos:station:NOAA.NDBC:FWYF1:1,2015-09-06T18:00:00Z,25.5910,-80.0970,29.2,1111122 
NDBC,ioos:station:NOAA.NDBC:FWYF1:1,2015-09-06T19:00:00Z,25.5910,-80.0970,29.4,1111122 
NDBC,ioos:station:NOAA.NDBC:FWYF1:1,2015-09-06T20:00:00Z,25.5910,-80.0970,29.2,1111122 
NDBC,ioos:station:NOAA.NDBC:FWYF1:1,2015-09-06T21:00:00Z,25.5910,-80.0970,29.6,1111122 
NDBC,ioos:station:NOAA.NDBC:FWYF1:1,2015-09-06T22:00:00Z,25.5910,-80.0970,27.8,1111122 
NDBC,ioos:station:NOAA.NDBC:FWYF1:1,2015-09-06T23:00:00Z,25.5910,-80.0970,28.4,1111122 
NDBC,ioos:station:NOAA.NDBC:FWYF1:1,2015-09-07T01:00:00Z,25.5910,-80.0970,28.4,1111122 
NDBC,ioos:station:NOAA.NDBC:FWYF1:1,2015-09-07T02:00:00Z,25.5910,-80.0970,28.5,1111122 
NDBC,ioos:station:NOAA.NDBC:FWYF1:1,2015-09-07T03:00:00Z,25.5910,-80.0970,28.8,1111122 
NDBC,ioos:station:NOAA.NDBC:FWYF1:1,2015-09-07T04:00:00Z,25.5910,-80.0970,28.8,1111122 
NDBC,ioos:station:NOAA.NDBC:FWYF1:1,2015-09-07T05:00:00Z,25.5910,-80.0970,29.2,1111122 
NDBC,ioos:station:NOAA.NDBC:FWYF1:1,2015-09-07T06:00:00Z,25.5910,-80.0970,29.2,1111122 
NDBC,ioos:station:NOAA.NDBC:FWYF1:1,2015-09-07T08:00:00Z,25.5910,-80.0970,29.2,1111122 
NDBC,ioos:station:NOAA.NDBC:FWYF1:1,2015-09-07T10:00:00Z,25.5910,-80.0970,29.0,1111122 
NDBC,ioos:station:NOAA.NDBC:FWYF1:1,2015-09-07T13:00:00Z,25.5910,-80.0970,30.1,1111122 
NDBC,ioos:station:NOAA.NDBC:FWYF1:1,2015-09-07T14:00:00Z,25.5910,-80.0970,30.7,1111122 
NDBC,ioos:station:NOAA.NDBC:FWYF1:1,2015-09-07T15:00:00Z,25.5910,-80.0970,31.0,1111122 
NDBC,ioos:station:NOAA.NDBC:FWYF1:1,2015-09-07T16:00:00Z,25.5910,-80.0970,30.9,1111122 
NDBC,ioos:station:NOAA.NDBC:FWYF1:1,2015-09-07T17:00:00Z,25.5910,-80.0970,30.2,1111122 
NDBC,ioos:station:NOAA.NDBC:FWYF1:1,2015-09-07T18:00:00Z,25.5910,-80.0970,25.5,1111122 
NDBC,ioos:station:NOAA.NDBC:FWYF1:1,2015-09-07T20:00:00Z,25.5910,-80.0970,28.4,1111122 
NDBC,ioos:station:NOAA.NDBC:FWYF1:1,2015-09-07T21:00:00Z,25.5910,-80.0970,29.0,1111122 
NDBC,ioos:station:NOAA.NDBC:FWYF1:1,2015-09-07T22:00:00Z,25.5910,-80.0970,29.4,1111122 
NDBC,ioos:station:NOAA.NDBC:FWYF1:1,2015-09-07T23:00:00Z,25.5910,-80.0970,28.6,1111122 
NDBC,ioos:station:NOAA.NDBC:FWYF1:1,2015-09-08T00:00:00Z,25.5910,-80.0970,28.6,1111122 
NDBC,ioos:station:NOAA.NDBC:FWYF1:1,2015-09-08T01:00:00Z,25.5910,-80.0970,28.7,1111122 
NDBC,ioos:station:NOAA.NDBC:FWYF1:1,2015-09-08T02:00:00Z,25.5910,-80.0970,29.0,1111122 
NDBC,ioos:station:NOAA.NDBC:FWYF1:1,2015-09-08T03:00:00Z,25.5910,-80.0970,29.2,1111122 
NDBC,ioos:station:NOAA.NDBC:FWYF1:1,2015-09-08T04:00:00Z,25.5910,-80.0970,29.5,1111122 
NDBC,ioos:station:NOAA.NDBC:FWYF1:1,2015-09-08T05:00:00Z,25.5910,-80.0970,29.4,1111122 
NDBC,ioos:station:NOAA.NDBC:FWYF1:1,2015-09-08T06:00:00Z,25.5910,-80.0970,29.4,1111122 
NDBC,ioos:station:NOAA.NDBC:FWYF1:1,2015-09-08T07:00:00Z,25.5910,-80.0970,29.3,1111122 
NDBC,ioos:station:NOAA.NDBC:FWYF1:1,2015-09-08T08:00:00Z,25.5910,-80.0970,29.3,1111122 
NDBC,ioos:station:NOAA.NDBC:FWYF1:1,2015-09-08T09:00:00Z,25.5910,-80.0970,29.4,1111122 
NDBC,ioos:station:NOAA.NDBC:FWYF1:1,2015-09-08T10:00:00Z,25.5910,-80.0970,29.5,1111122 
NDBC,ioos:station:NOAA.NDBC:FWYF1:1,2015-09-08T11:00:00Z,25.5910,-80.0970,29.6,1111122 
NDBC,ioos:station:NOAA.NDBC:FWYF1:1,2015-09-08T12:00:00Z,25.5910,-80.0970,29.6,1111122 
NDBC,ioos:station:NOAA.NDBC:FWYF1:1,2015-09-08T13:00:00Z,25.5910,-80.0970,29.4,1111122 
NDBC,ioos:station:NOAA.NDBC:FWYF1:1,2015-09-08T14:00:00Z,25.5910,-80.0970,29.7,1111122 
NDBC,ioos:station:NOAA.NDBC:FWYF1:1,2015-09-08T15:00:00Z,25.5910,-80.0970,29.4,1111122 
NDBC,ioos:station:NOAA.NDBC:FWYF1:1,2015-09-08T16:00:00Z,25.5910,-80.0970,29.1,1111122 
NDBC,ioos:station:NOAA.NDBC:FWYF1:1,2015-09-08T17:00:00Z,25.5910,-80.0970,29.8,1111122 
NDBC,ioos:station:NOAA.NDBC:FWYF1:1,2015-09-08T18:00:00Z,25.5910,-80.0970,29.9,1111122 
NDBC,ioos:station:NOAA.NDBC:FWYF1:1,2015-09-08T19:00:00Z,25.5910,-80.0970,30.0,1111122 
NDBC,ioos:station:NOAA.NDBC:FWYF1:1,2015-09-08T20:00:00Z,25.5910,-80.0970,30.1,1111122 
NDBC,ioos:station:NOAA.NDBC:FWYF1:1,2015-09-08T21:00:00Z,25.5910,-80.0970,30.1,1111122 
NDBC,ioos:station:NOAA.NDBC:FWYF1:1,2015-09-08T22:00:00Z,25.5910,-80.0970,30.1,1111122 
NDBC,ioos:station:NOAA.NDBC:FWYF1:1,2015-09-08T23:00:00Z,25.5910,-80.0970,30.0,1111122 
NDBC,ioos:station:NOAA.NDBC:FWYF1:1,2015-09-09T01:00:00Z,25.5910,-80.0970,30.0,1111122 
NDBC,ioos:station:NOAA.NDBC:FWYF1:1,2015-09-09T02:00:00Z,25.5910,-80.0970,30.0,1111122 
NDBC,ioos:station:NOAA.NDBC:FWYF1:1,2015-09-09T03:00:00Z,25.5910,-80.0970,29.9,1111122 
NDBC,ioos:station:NOAA.NDBC:FWYF1:1,2015-09-09T04:00:00Z,25.5910,-80.0970,29.9,1111122 
NDBC,ioos:station:NOAA.NDBC:FWYF1:1,2015-09-09T05:00:00Z,25.5910,-80.0970,29.9,1111122 
NDBC,ioos:station:NOAA.NDBC:FWYF1:1,2015-09-09T06:00:00Z,25.5910,-80.0970,29.7,1111122 
NDBC,ioos:station:NOAA.NDBC:FWYF1:1,2015-09-09T07:00:00Z,25.5910,-80.0970,29.7,1111122 
NDBC,ioos:station:NOAA.NDBC:FWYF1:1,2015-09-09T08:00:00Z,25.5910,-80.0970,29.8,1111122 
NDBC,ioos:station:NOAA.NDBC:FWYF1:1,2015-09-09T09:00:00Z,25.5910,-80.0970,29.7,1111122 
NDBC,ioos:station:NOAA.NDBC:FWYF1:1,2015-09-09T10:00:00Z,25.5910,-80.0970,29.4,1111122 
NDBC,ioos:station:NOAA.NDBC:FWYF1:1,2015-09-09T11:00:00Z,25.5910,-80.0970,29.8,1111122 
NDBC,ioos:station:NOAA.NDBC:FWYF1:1,2015-09-09T12:00:00Z,25.5910,-80.0970,29.9,1111122 
NDBC,ioos:station:NOAA.NDBC:FWYF1:1,2015-09-09T13:00:00Z,25.5910,-80.0970,29.9,1111122 
NDBC,ioos:station:NOAA.NDBC:FWYF1:1,2015-09-09T14:00:00Z,25.5910,-80.0970,29.8,1111122 
NDBC,ioos:station:NOAA.NDBC:FWYF1:1,2015-09-09T15:00:00Z,25.5910,-80.0970,29.8,1111122 
NDBC,ioos:station:NOAA.NDBC:FWYF1:1,2015-09-09T16:00:00Z,25.5910,-80.0970,29.8,1111122 
NDBC,ioos:station:NOAA.NDBC:FWYF1:1,2015-09-09T17:00:00Z,25.5910,-80.0970,29.6,1111122 
NDBC,ioos:station:NOAA.NDBC:FWYF1:1,2015-09-09T18:00:00Z,25.5910,-80.0970,29.8,1111122 
NDBC,ioos:station:NOAA.NDBC:FWYF1:1,2015-09-09T19:00:00Z,25.5910,-80.0970,29.8,1111122 
NDBC,ioos:station:NOAA.NDBC:FWYF1:1,2015-09-09T20:00:00Z,25.5910,-80.0970,29.9,1111122 
NDBC,ioos:station:NOAA.NDBC:FWYF1:1,2015-09-09T21:00:00Z,25.5910,-80.0970,29.8,1111122 
NDBC,ioos:station:NOAA.NDBC:FWYF1:1,2015-09-09T22:00:00Z,25.5910,-80.0970,29.8,1111122 
NDBC,ioos:station:NOAA.NDBC:FWYF1:1,2015-09-09T23:00:00Z,25.5910,-80.0970,29.8,1111122 
NDBC,ioos:station:NOAA.NDBC:FWYF1:1,2015-09-10T00:00:00Z,25.5910,-80.0970,29.9,1111122 
NDBC,ioos:station:NOAA.NDBC:FWYF1:1,2015-09-10T02:00:00Z,25.5910,-80.0970,29.7,1111122 
NDBC,ioos:station:NOAA.NDBC:FWYF1:1,2015-09-10T03:00:00Z,25.5910,-80.0970,29.7,1111122 
NDBC,ioos:station:NOAA.NDBC:FWYF1:1,2015-09-10T04:00:00Z,25.5910,-80.0970,29.8,1111122 
NDBC,ioos:station:NOAA.NDBC:FWYF1:1,2015-09-10T05:00:00Z,25.5910,-80.0970,29.8,1111122 
NDBC,ioos:station:NOAA.NDBC:FWYF1:1,2015-09-10T06:00:00Z,25.5910,-80.0970,29.8,1111122 
NDBC,ioos:station:NOAA.NDBC:FWYF1:1,2015-09-10T08:00:00Z,25.5910,-80.0970,29.7,1111122 
NDBC,ioos:station:NOAA.NDBC:FWYF1:1,2015-09-10T09:00:00Z,25.5910,-80.0970,29.6,1111122 
NDBC,ioos:station:NOAA.NDBC:FWYF1:1,2015-09-10T10:00:00Z,25.5910,-80.0970,29.6,1111122 
NDBC,ioos:station:NOAA.NDBC:FWYF1:1,2015-09-10T11:00:00Z,25.5910,-80.0970,29.5,1111122 
NDBC,ioos:station:NOAA.NDBC:FWYF1:1,2015-09-10T12:00:00Z,25.5910,-80.0970,29.9,1111122 
NDBC,ioos:station:NOAA.NDBC:FWYF1:1,2015-09-10T13:00:00Z,25.5910,-80.0970,29.8,1111122 
NDBC,ioos:station:NOAA.NDBC:FWYF1:1,2015-09-10T14:00:00Z,25.5910,-80.0970,30.0,1111122 
NDBC,ioos:station:NOAA.NDBC:FWYF1:1,2015-09-10T15:00:00Z,25.5910,-80.0970,30.0,1111122 
NDBC,ioos:station:NOAA.NDBC:FWYF1:1,2015-09-10T16:00:00Z,25.5910,-80.0970,29.8,1111122 
NDBC,ioos:station:NOAA.NDBC:FWYF1:1,2015-09-10T17:00:00Z,25.5910,-80.0970,29.9,1111122 
NDBC,ioos:station:NOAA.NDBC:FWYF1:1,2015-09-10T18:00:00Z,25.5910,-80.0970,29.9,1111122 
NDBC,ioos:station:NOAA.NDBC:FWYF1:1,2015-09-10T19:00:00Z,25.5910,-80.0970,29.7,1111122 
NDBC,ioos:station:NOAA.NDBC:FWYF1:1,2015-09-10T21:00:00Z,25.5910,-80.0970,29.7,1111122 
NDBC,ioos:station:NOAA.NDBC:FWYF1:1,2015-09-10T23:00:00Z,25.5910,-80.0970,29.7,1111122 
NDBC,ioos:station:NOAA.NDBC:FWYF1:1,2015-09-11T00:00:00Z,25.5910,-80.0970,29.6,1111122 
NDBC,ioos:station:NOAA.NDBC:FWYF1:1,2015-09-11T03:00:00Z,25.5910,-80.0970,29.7,1111122 
NDBC,ioos:station:NOAA.NDBC:FWYF1:1,2015-09-11T04:00:00Z,25.5910,-80.0970,29.7,1111122 
NDBC,ioos:station:NOAA.NDBC:FWYF1:1,2015-09-11T05:00:00Z,25.5910,-80.0970,29.6,1111122 
NDBC,ioos:station:NOAA.NDBC:FWYF1:1,2015-09-11T09:00:00Z,25.5910,-80.0970,29.1,1111122 
NDBC,ioos:station:NOAA.NDBC:FWYF1:1,2015-09-11T10:00:00Z,25.5910,-80.0970,29.2,1111122 
NDBC,ioos:station:NOAA.NDBC:FWYF1:1,2015-09-11T11:00:00Z,25.5910,-80.0970,29.3,1111122 
NDBC,ioos:station:NOAA.NDBC:FWYF1:1,2015-09-11T12:00:00Z,25.5910,-80.0970,28.0,1111122 
NDBC,ioos:station:NOAA.NDBC:FWYF1:1,2015-09-11T13:00:00Z,25.5910,-80.0970,27.7,1111122 
NDBC,ioos:station:NOAA.NDBC:FWYF1:1,2015-09-11T15:00:00Z,25.5910,-80.0970,28.6,1111122 
NDBC,ioos:station:NOAA.NDBC:FWYF1:1,2015-09-11T16:00:00Z,25.5910,-80.0970,30.3,1111122 
NDBC,ioos:station:NOAA.NDBC:FWYF1:1,2015-09-11T17:00:00Z,25.5910,-80.0970,31.6,1111122 
NDBC,ioos:station:NOAA.NDBC:FWYF1:1,2015-09-11T18:00:00Z,25.5910,-80.0970,30.9,1111122 
NDBC,ioos:station:NOAA.NDBC:FWYF1:1,2015-09-11T19:00:00Z,25.5910,-80.0970,29.5,1111122 
NDBC,ioos:station:NOAA.NDBC:FWYF1:1,2015-09-11T20:00:00Z,25.5910,-80.0970,29.5,1111122 
NDBC,ioos:station:NOAA.NDBC:FWYF1:1,2015-09-11T21:00:00Z,25.5910,-80.0970,29.9,1111122 
NDBC,ioos:station:NOAA.NDBC:FWYF1:1,2015-09-11T22:00:00Z,25.5910,-80.0970,29.7,1111122 
NDBC,ioos:station:NOAA.NDBC:FWYF1:1,2015-09-11T23:00:00Z,25.5910,-80.0970,29.8,1111122 
NDBC,ioos:station:NOAA.NDBC:FWYF1:1,2015-09-12T00:00:00Z,25.5910,-80.0970,29.7,1111122 
NDBC,ioos:station:NOAA.NDBC:FWYF1:1,2015-09-12T01:00:00Z,25.5910,-80.0970,29.6,1111122 
NDBC,ioos:station:NOAA.NDBC:FWYF1:1,2015-09-12T04:00:00Z,25.5910,-80.0970,29.6,1111122 
NDBC,ioos:station:NOAA.NDBC:FWYF1:1,2015-09-12T05:00:00Z,25.5910,-80.0970,29.7,1111122 
NDBC,ioos:station:NOAA.NDBC:FWYF1:1,2015-09-12T06:00:00Z,25.5910,-80.0970,29.6,1111122 
NDBC,ioos:station:NOAA.NDBC:FWYF1:1,2015-09-12T08:00:00Z,25.5910,-80.0970,29.1,1111122 
NDBC,ioos:station:NOAA.NDBC:FWYF1:1,2015-09-12T11:00:00Z,25.5910,-80.0970,29.3,1111122 
NDBC,ioos:station:NOAA.NDBC:FWYF1:1,2015-09-12T12:00:00Z,25.5910,-80.0970,28.3,1111122 
NDBC,ioos:station:NOAA.NDBC:FWYF1:1,2015-09-12T13:00:00Z,25.5910,-80.0970,30.2,1111122 
NDBC,ioos:station:NOAA.NDBC:FWYF1:1,2015-09-12T14:00:00Z,25.5910,-80.0970,30.2,1111122 
NDBC,ioos:station:NOAA.NDBC:FWYF1:1,2015-09-12T15:00:00Z,25.5910,-80.0970,30.8,1111122 
NDBC,ioos:station:NOAA.NDBC:FWYF1:1,2015-09-12T16:00:00Z,25.5910,-80.0970,30.8,1111122 
NDBC,ioos:station:NOAA.NDBC:FWYF1:1,2015-09-12T17:00:00Z,25.5910,-80.0970,30.3,1111122 
NDBC,ioos:station:NOAA.NDBC:FWYF1:1,2015-09-12T18:00:00Z,25.5910,-80.0970,30.6,1111122 
NDBC,ioos:station:NOAA.NDBC:FWYF1:1,2015-09-12T19:00:00Z,25.5910,-80.0970,30.5,1111122 
NDBC,ioos:station:NOAA.NDBC:FWYF1:1,2015-09-12T20:00:00Z,25.5910,-80.0970,30.7,1111122 
NDBC,ioos:station:NOAA.NDBC:FWYF1:1,2015-09-12T21:00:00Z,25.5910,-80.0970,31.0,1111122 
NDBC,ioos:station:NOAA.NDBC:FWYF1:1,2015-09-12T22:00:00Z,25.5910,-80.0970,30.8,1111122 
NDBC,ioos:station:NOAA.NDBC:FWYF1:1,2015-09-13T00:00:00Z,25.5910,-80.0970,30.2,1111122 
NDBC,ioos:station:NOAA.NDBC:FWYF1:1,2015-09-13T01:00:00Z,25.5910,-80.0970,30.1,1111122 
NDBC,ioos:station:NOAA.NDBC:FWYF1:1,2015-09-13T02:00:00Z,25.5910,-80.0970,30.0,1111122 
NDBC,ioos:station:NOAA.NDBC:FWYF1:1,2015-09-13T03:00:00Z,25.5910,-80.0970,30.1,1111122 
NDBC,ioos:station:NOAA.NDBC:FWYF1:1,2015-09-13T04:00:00Z,25.5910,-80.0970,29.9,1111122 
NDBC,ioos:station:NOAA.NDBC:FWYF1:1,2015-09-13T05:00:00Z,25.5910,-80.0970,29.7,1111122 
NDBC,ioos:station:NOAA.NDBC:FWYF1:1,2015-09-13T06:00:00Z,25.5910,-80.0970,29.7,1111122 
NDBC,ioos:station:NOAA.NDBC:FWYF1:1,2015-09-13T09:00:00Z,25.5910,-80.0970,28.9,1111122 
NDBC,ioos:station:NOAA.NDBC:FWYF1:1,2015-09-13T10:00:00Z,25.5910,-80.0970,28.7,1111122 
NDBC,ioos:station:NOAA.NDBC:FWYF1:1,2015-09-13T11:00:00Z,25.5910,-80.0970,28.9,1111122 
NDBC,ioos:station:NOAA.NDBC:FWYF1:1,2015-09-13T13:00:00Z,25.5910,-80.0970,29.7,1111122 
NDBC,ioos:station:NOAA.NDBC:FWYF1:1,2015-09-13T14:00:00Z,25.5910,-80.0970,30.2,1111122 
NDBC,ioos:station:NOAA.NDBC:FWYF1:1,2015-09-13T15:00:00Z,25.5910,-80.0970,30.2,1111122 
NDBC,ioos:station:NOAA.NDBC:FWYF1:1,2015-09-13T16:00:00Z,25.5910,-80.0970,30.2,1111122 
NDBC,ioos:station:NOAA.NDBC:FWYF1:1,2015-09-13T17:00:00Z,25.5910,-80.0970,30.5,1111122 
NDBC,ioos:station:NOAA.NDBC:FWYF1:1,2015-09-13T18:00:00Z,25.5910,-80.0970,30.4,1111122 
NDBC,ioos:station:NOAA.NDBC:FWYF1:1,2015-09-13T19:00:00Z,25.5910,-80.0970,30.4,1111122 
NDBC,ioos:station:NOAA.NDBC:FWYF1:1,2015-09-13T20:00:00Z,25.5910,-80.0970,31.1,1111122 
NDBC,ioos:station:NOAA.NDBC:FWYF1:1,2015-09-13T21:00:00Z,25.5910,-80.0970,28.6,1111122 
NDBC,ioos:station:NOAA.NDBC:FWYF1:1,2015-09-13T22:00:00Z,25.5910,-80.0970,24.2,1111122 
NDBC,ioos:station:NOAA.NDBC:FWYF1:1,2015-09-14T00:00:00Z,25.5910,-80.0970,26.7,1111122 
NDBC,ioos:station:NOAA.NDBC:FWYF1:1,2015-09-14T01:00:00Z,25.5910,-80.0970,26.6,1111122 
NDBC,ioos:station:NOAA.NDBC:FWYF1:1,2015-09-14T02:00:00Z,25.5910,-80.0970,27.0,1111122 
NDBC,ioos:station:NOAA.NDBC:FWYF1:1,2015-09-14T03:00:00Z,25.5910,-80.0970,27.7,1111122 
NDBC,ioos:station:NOAA.NDBC:FWYF1:1,2015-09-14T04:00:00Z,25.5910,-80.0970,27.8,1111122 
NDBC,ioos:station:NOAA.NDBC:FWYF1:1,2015-09-14T05:00:00Z,25.5910,-80.0970,28.4,1111122 
NDBC,ioos:station:NOAA.NDBC:FWYF1:1,2015-09-14T06:00:00Z,25.5910,-80.0970,28.6,1111122 
NDBC,ioos:station:NOAA.NDBC:FWYF1:1,2015-09-14T07:00:00Z,25.5910,-80.0970,28.6,1111122 
NDBC,ioos:station:NOAA.NDBC:FWYF1:1,2015-09-14T08:00:00Z,25.5910,-80.0970,28.5,1111122 
NDBC,ioos:station:NOAA.NDBC:FWYF1:1,2015-09-14T09:00:00Z,25.5910,-80.0970,28.5,1111122 
NDBC,ioos:station:NOAA.NDBC:FWYF1:1,2015-09-14T10:00:00Z,25.5910,-80.0970,28.7,1111122 
NDBC,ioos:station:NOAA.NDBC:FWYF1:1,2015-09-14T11:00:00Z,25.5910,-80.0970,28.8,1111122 
NDBC,ioos:station:NOAA.NDBC:FWYF1:1,2015-09-14T12:00:00Z,25.5910,-80.0970,29.0,1111122 
NDBC,ioos:station:NOAA.NDBC:FWYF1:1,2015-09-14T13:00:00Z,25.5910,-80.0970,29.4,1111122 
NDBC,ioos:station:NOAA.NDBC:FWYF1:1,2015-09-14T14:00:00Z,25.5910,-80.0970,29.5,1111122 
NDBC,ioos:station:NOAA.NDBC:FWYF1:1,2015-09-14T16:00:00Z,25.5910,-80.0970,29.4,1111122 
NDBC,ioos:station:NOAA.NDBC:FWYF1:1,2015-09-14T17:00:00Z,25.5910,-80.0970,29.4,1111122 
NDBC,ioos:station:NOAA.NDBC:FWYF1:1,2015-09-14T18:00:00Z,25.5910,-80.0970,29.6,1111122 
NDBC,ioos:station:NOAA.NDBC:FWYF1:1,2015-09-14T19:00:00Z,25.5910,-80.0970,29.5,1111122 
NDBC,ioos:station:NOAA.NDBC:FWYF1:1,2015-09-14T20:00:00Z,25.5910,-80.0970,29.5,1111122 
NDBC,ioos:station:NOAA.NDBC:FWYF1:1,2015-09-14T21:00:00Z,25.5910,-80.0970,29.6,1111122 
NDBC,ioos:station:NOAA.NDBC:FWYF1:1,2015-09-14T22:00:00Z,25.5910,-80.0970,29.6,1111122 
NDBC,ioos:station:NOAA.NDBC:FWYF1:1,2015-09-15T00:00:00Z,25.5910,-80.0970,29.7,1111122 
NDBC,ioos:station:NOAA.NDBC:FWYF1:1,2015-09-15T01:00:00Z,25.5910,-80.0970,29.7,1111122 
NDBC,ioos:station:NOAA.NDBC:FWYF1:1,2015-09-15T02:00:00Z,25.5910,-80.0970,29.3,1111122 
NDBC,ioos:station:NOAA.NDBC:FWYF1:1,2015-09-15T03:00:00Z,25.5910,-80.0970,29.4,1111122 
NDBC,ioos:station:NOAA.NDBC:FWYF1:1,2015-09-15T04:00:00Z,25.5910,-80.0970,29.5,1111122 
NDBC,ioos:station:NOAA.NDBC:FWYF1:1,2015-09-15T06:00:00Z,25.5910,-80.0970,28.7,1111122 
NDBC,ioos:station:NOAA.NDBC:FWYF1:1,2015-09-15T07:00:00Z,25.5910,-80.0970,29.8,1111122 
NDBC,ioos:station:NOAA.NDBC:FWYF1:1,2015-09-15T08:00:00Z,25.5910,-80.0970,29.6,1111122 
NDBC,ioos:station:NOAA.NDBC:FWYF1:1,2015-09-15T09:00:00Z,25.5910,-80.0970,29.7,1111122 
NDBC,ioos:station:NOAA.NDBC:FWYF1:1,2015-09-15T10:00:00Z,25.5910,-80.0970,29.4,1111122 
NDBC,ioos:station:NOAA.NDBC:FWYF1:1,2015-09-15T11:00:00Z,25.5910,-80.0970,29.1,1111122 
NDBC,ioos:station:NOAA.NDBC:FWYF1:1,2015-09-15T12:00:00Z,25.5910,-80.0970,28.9,1111122 
NDBC,ioos:station:NOAA.NDBC:FWYF1:1,2015-09-15T13:00:00Z,25.5910,-80.0970,29.2,1111122 
NDBC,ioos:station:NOAA.NDBC:FWYF1:1,2015-09-15T14:00:00Z,25.5910,-80.0970,29.1,1111122 
NDBC,ioos:station:NOAA.NDBC:FWYF1:1,2015-09-15T15:00:00Z,25.5910,-80.0970,29.6,1111122 
NDBC,ioos:station:NOAA.NDBC:FWYF1:1,2015-09-15T16:00:00Z,25.5910,-80.0970,28.2,1111122 
NDBC,ioos:station:NOAA.NDBC:FWYF1:1,2015-09-15T17:00:00Z,25.5910,-80.0970,28.8,1111122 
NDBC,ioos:station:NOAA.NDBC:FWYF1:1,2015-09-15T18:00:00Z,25.5910,-80.0970,29.1,1111122 
NDBC,ioos:station:NOAA.NDBC:FWYF1:1,2015-09-15T20:00:00Z,25.5910,-80.0970,29.7,1111122 
NDBC,ioos:station:NOAA.NDBC:FWYF1:1,2015-09-15T21:00:00Z,25.5910,-80.0970,29.7,1111122 
NDBC,ioos:station:NOAA.NDBC:FWYF1:1,2015-09-15T22:00:00Z,25.5910,-80.0970,29.6,1111122 
NDBC,ioos:station:NOAA.NDBC:FWYF1:1,2015-09-15T23:00:00Z,25.5910,-80.0970,27.8,1111122 
NDBC,ioos:station:NOAA.NDBC:FWYF1:1,2015-09-16T00:00:00Z,25.5910,-80.0970,29.9,1111122 
NDBC,ioos:station:NOAA.NDBC:FWYF1:1,2015-09-16T01:00:00Z,25.5910,-80.0970,29.7,1111122 
NDBC,ioos:station:NOAA.NDBC:FWYF1:1,2015-09-16T02:00:00Z,25.5910,-80.0970,29.9,1111122 
NDBC,ioos:station:NOAA.NDBC:FWYF1:1,2015-09-16T03:00:00Z,25.5910,-80.0970,29.6,1111122 
NDBC,ioos:station:NOAA.NDBC:FWYF1:1,2015-09-16T04:00:00Z,25.5910,-80.0970,29.6,1111122 
NDBC,ioos:station:NOAA.NDBC:FWYF1:1,2015-09-16T05:00:00Z,25.5910,-80.0970,27.8,1111122 
NDBC,ioos:station:NOAA.NDBC:FWYF1:1,2015-09-16T06:00:00Z,25.5910,-80.0970,28.4,1111122 
NDBC,ioos:station:NOAA.NDBC:FWYF1:1,2015-09-16T07:00:00Z,25.5910,-80.0970,27.8,1111122 
NDBC,ioos:station:NOAA.NDBC:FWYF1:1,2015-09-16T08:00:00Z,25.5910,-80.0970,26.4,1111122 
NDBC,ioos:station:NOAA.NDBC:FWYF1:1,2015-09-16T09:00:00Z,25.5910,-80.0970,26.8,1111122 
NDBC,ioos:station:NOAA.NDBC:FWYF1:1,2015-09-16T10:00:00Z,25.5910,-80.0970,25.6,1111122 
NDBC,ioos:station:NOAA.NDBC:FWYF1:1,2015-09-16T11:00:00Z,25.5910,-80.0970,26.8,1111122 
NDBC,ioos:station:NOAA.NDBC:FWYF1:1,2015-09-16T12:00:00Z,25.5910,-80.0970,27.0,1111122 
NDBC,ioos:station:NOAA.NDBC:FWYF1:1,2015-09-16T13:00:00Z,25.5910,-80.0970,27.8,1111122 
NDBC,ioos:station:NOAA.NDBC:FWYF1:1,2015-09-16T14:00:00Z,25.5910,-80.0970,28.2,1111122 
NDBC,ioos:station:NOAA.NDBC:FWYF1:1,2015-09-16T15:00:00Z,25.5910,-80.0970,28.5,1111122 
NDBC,ioos:station:NOAA.NDBC:FWYF1:1,2015-09-16T16:00:00Z,25.5910,-80.0970,26.7,1111122 
NDBC,ioos:station:NOAA.NDBC:FWYF1:1,2015-09-16T17:00:00Z,25.5910,-80.0970,27.8,1111122 
NDBC,ioos:station:NOAA.NDBC:FWYF1:1,2015-09-16T18:00:00Z,25.5910,-80.0970,26.8,1111122 
NDBC,ioos:station:NOAA.NDBC:FWYF1:1,2015-09-16T19:00:00Z,25.5910,-80.0970,27.7,1111122 
NDBC,ioos:station:NOAA.NDBC:FWYF1:1,2015-09-17T00:00:00Z,25.5910,-80.0970,28.7,1111122 
NDBC,ioos:station:NOAA.NDBC:FWYF1:1,2015-09-17T01:00:00Z,25.5910,-80.0970,28.6,1111122 
NDBC,ioos:station:NOAA.NDBC:FWYF1:1,2015-09-17T02:00:00Z,25.5910,-80.0970,28.5,1111122 
NDBC,ioos:station:NOAA.NDBC:FWYF1:1,2015-09-17T03:00:00Z,25.5910,-80.0970,28.5,1111122 
NDBC,ioos:station:NOAA.NDBC:FWYF1:1,2015-09-17T04:00:00Z,25.5910,-80.0970,28.0,1111122 
NDBC,ioos:station:NOAA.NDBC:FWYF1:1,2015-09-17T05:00:00Z,25.5910,-80.0970,28.4,1111122 
NDBC,ioos:station:NOAA.NDBC:FWYF1:1,2015-09-17T06:00:00Z,25.5910,-80.0970,25.9,1111122 
NDBC,ioos:station:NOAA.NDBC:FWYF1:1,2015-09-17T07:00:00Z,25.5910,-80.0970,26.7,1111122 